QPF
0.00 0.00 0.00 0.00 0.00 0.00 0.00 0.00 0.00 0.00 0.00 0.00 0.00 0.00 0.00 0.00 0.00 0.00 0.00 0.00 0.00 0.00 0.00 0.00 0.00 0.00 0.00 0.00 0.00 0.00 0.00 0.00 0.00 0.00 0.00 0.00 0.00 0.00 0.00 0.00 0.00 0.00 0.00 0.00
0.00 0.00 0.00 0.00 0.00 0.00 0.00 0.00 0.00 0.00 0.00 0.00 0.00 0.00 0.00 0.00 0.00 0.00 0.00 0.00 0.00 0.00 0.00 0.00 0.00 0.00 0.00 0.00 0.00 0.00 0.00 0.00 0.00 0.00 0.00 0.00 0.00 0.00 0.00 0.00 0.00 0.00 0.00 0.00
0.00 0.00 0.00 0.00 0.00 0.00 0.00 0.00 0.00 0.00 0.00 0.00 0.00 0.00 0.00 0.00 0.00 0.00 0.00 0.00 0.00 0.00 0.00 0.00 0.00 0.00 0.00 0.00 0.00 0.00 0.00 0.00 0.00 0.00 0.00 0.00 0.00 0.00 0.00 0.00 0.00 0.00 0.00 0.00
0.00 0.00 0.00 0.00 0.00 0.00 0.00 0.00 0.00 0.00 0.00 0.00 0.00 0.00 0.00 0.00 0.00 0.00 0.00 0.00 0.00 0.00 0.00 0.00 0.00 0.00 0.00 0.00 0.00 0.00 0.00 0.00 0.00 0.00 0.00 0.00 0.00 0.00 0.00 0.00 0.00 0.00 0.00 0.00
0.00 0.00 0.00 0.00 0.00 0.00 0.00 0.00 0.00 0.00 0.00 0.00 0.00 0.00 0.00 0.00 0.00 0.00 0.00 0.00 0.00 0.00 0.00 0.00 0.00 0.00 0.00 0.00 0.00 0.00 0.00 0.00 0.00 0.00 0.00 0.00 0.00 0.00 0.00 0.00 0.00 0.00 0.00 0.00
0.00 0.00 0.00 0.00 0.00 0.00 0.00 0.00 0.00 0.00 0.00 0.00 0.00 0.00 0.00 0.00 0.00 0.00 0.00 0.00 0.00 0.00 0.00 0.00 0.00 0.00 0.00 0.00 0.00 0.00 0.00 0.00 0.00 0.00 0.00 0.00 0.00 0.00 0.00 0.00 0.00 0.00 0.00 0.01
0.00 0.00 0.00 0.00 0.00 0.00 0.00 0.00 0.00 0.00 0.00 0.00 0.00 0.00 0.00 0.00 0.00 0.00 0.00 0.00 0.00 0.00 0.00 0.00 0.00 0.00 0.00 0.00 0.00 0.00 0.00 0.00 0.00 0.00 0.00 0.00 0.00 0.00 0.00 0.00 0.00 0.00 0.00 0.00
0.00 0.00 0.00 0.00 0.00 0.00 0.00 0.00 0.00 0.00 0.00 0.00 0.00 0.00 0.00 0.00 0.00 0.00 0.00 0.00 0.00 0.00 0.00 0.00 0.00 0.00 0.00 0.00 0.00 0.00 0.00 0.00 0.00 0.00 0.00 0.00 0.00 0.00 0.00 0.00 0.00 0.00 0.00 0.00
0.00 0.00 0.00 0.00 0.00 0.00 0.00 0.00 0.00 0.00 0.00 0.00 0.00 0.00 0.00 0.00 0.00 0.00 0.00 0.00 0.00 0.00 0.00 0.00 0.00 0.00 0.00 0.00 0.00 0.00 0.00 0.00 0.00 0.00 0.00 0.00 0.00 0.00 0.00 0.00 0.00 0.00 0.00 0.00
0.00 0.00 0.00 0.00 0.00 0.00 0.00 0.00 0.00 0.00 0.00 0.00 0.00 0.00 0.00 0.00 0.00 0.00 0.00 0.00 0.00 0.00 0.00 0.00 0.00 0.00 0.00 0.00 0.00 0.00 0.00 0.00 0.00 0.00 0.00 0.00 0.00 0.00 0.00 0.00 0.00 0.00 0.00 0.00
0.00 0.00 0.00 0.00 0.00 0.00 0.00 0.00 0.00 0.00 0.00 0.00 0.00 0.00 0.00 0.00 0.00 0.00 0.00 0.00 0.00 0.00 0.00 0.00 0.00 0.00 0.00 0.00 0.00 0.00 0.00 0.00 0.00 0.00 0.00 0.00 0.00 0.00 0.00 0.00 0.00 0.00 0.00 0.00
0.00 0.00 0.00 0.00 0.00 0.00 0.00 0.00 0.00 0.00 0.00 0.00 0.00 0.00 0.00 0.00 0.00 0.00 0.00 0.00 0.00 0.00 0.00 0.00 0.00 0.00 0.00 0.00 0.00 0.00 0.00 0.00 0.00 0.00 0.00 0.00 0.00 0.00 0.00 0.00 0.00 0.00 0.00 0.00
0.00 0.00 0.00 0.00 0.00 0.00 0.00 0.00 0.00 0.00 0.00 0.00 0.00 0.00 0.00 0.00 0.00 0.00 0.00 0.00 0.00 0.00 0.00 0.00 0.00 0.00 0.00 0.00 0.00 0.00 0.00 0.00 0.00 0.00 0.00 0.00 0.00 0.00 0.00 0.00 0.00 0.00 0.00 0.00
0.00 0.00 0.00 0.00 0.00 0.00 0.00 0.00 0.00 0.00 0.00 0.00 0.00 0.00 0.00 0.00 0.00 0.00 0.00 0.00 0.00 0.00 0.00 0.00 0.00 0.00 0.00 0.00 0.00 0.00 0.00 0.00 0.00 0.00 0.00 0.00 0.00 0.00 0.00 0.00 0.00 0.00 0.00 0.00
0.00 0.00 0.00 0.00 0.00 0.00 0.00 0.00 0.00 0.00 0.00 0.00 0.00 0.00 0.00 0.00 0.00 0.00 0.00 0.00 0.00 0.00 0.00 0.00 0.00 0.00 0.00 0.00 0.00 0.00 0.00 0.00 0.00 0.00 0.00 0.00 0.00 0.00 0.00 0.00 0.00 0.00 0.00 0.00
0.00 0.00 0.00 0.00 0.00 0.00 0.00 0.00 0.00 0.00 0.00 0.00 0.00 0.00 0.00 0.00 0.00 0.00 0.00 0.00 0.00 0.00 0.00 0.00 0.00 0.00 0.00 0.00 0.00 0.00 0.00 0.00 0.00 0.00 0.00 0.00 0.00 0.00 0.00 0.00 0.00 0.00 0.00 0.00
0.00 0.00 0.00 0.00 0.00 0.00 0.00 0.00 0.00 0.00 0.00 0.00 0.00 0.00 0.00 0.00 0.00 0.00 0.00 0.00 0.00 0.00 0.00 0.00 0.00 0.00 0.00 0.00 0.00 0.00 0.00 0.00 0.00 0.00 0.00 0.00 0.00 0.00 0.00 0.00 0.00 0.00 0.00 0.00
0.00 0.00 0.00 0.00 0.00 0.00 0.00 0.00 0.00 0.00 0.00 0.00 0.00 0.00 0.00 0.00 0.00 0.00 0.00 0.00 0.00 0.00 0.00 0.00 0.00 0.00 0.00 0.00 0.00 0.00 0.00 0.00 0.00 0.00 0.00 0.00 0.00 0.00 0.00 0.00 0.00 0.00 0.00 0.00
0.00 0.00 0.00 0.00 0.00 0.00 0.00 0.00 0.00 0.00 0.00 0.00 0.00 0.00 0.00 0.00 0.00 0.00 0.00 0.00 0.00 0.00 0.00 0.00 0.00 0.00 0.00 0.00 0.00 0.00 0.00 0.00 0.00 0.00 0.00 0.00 0.00 0.00 0.00 0.00 0.00 0.00 0.00 0.00
0.00 0.00 0.00 0.00 0.00 0.00 0.00 0.00 0.00 0.00 0.00 0.00 0.00 0.00 0.00 0.00 0.00 0.00 0.00 0.00 0.00 0.00 0.00 0.00 0.00 0.00 0.00 0.00 0.00 0.00 0.00 0.00 0.00 0.00 0.00 0.00 0.00 0.00 0.00 0.00 0.00 0.00 0.00 0.00
0.00 0.00 0.00 0.00 0.00 0.00 0.00 0.00 0.00 0.00 0.00 0.00 0.00 0.00 0.00 0.00 0.00 0.00 0.00 0.00 0.00 0.00 0.00 0.00 0.00 0.00 0.00 0.00 0.00 0.00 0.00 0.00 0.00 0.00 0.00 0.00 0.00 0.00 0.00 0.00 0.00 0.00 0.00 0.00
0.00 0.00 0.00 0.00 0.00 0.00 0.00 0.00 0.00 0.00 0.00 0.00 0.00 0.00 0.00 0.00 0.00 0.00 0.00 0.00 0.00 0.00 0.00 0.00 0.00 0.00 0.00 0.00 0.00 0.00 0.00 0.00 0.00 0.00 0.00 0.00 0.00 0.00 0.00 0.00 0.00 0.00 0.00 0.00
0.00 0.00 0.00 0.00 0.00 0.00 0.00 0.00 0.00 0.00 0.00 0.00 0.00 0.00 0.00 0.00 0.00 0.00 0.00 0.00 0.00 0.00 0.00 0.00 0.00 0.00 0.00 0.00 0.00 0.00 0.00 0.00 0.00 0.00 0.00 0.00 0.00 0.00 0.00 0.00 0.00 0.00 0.00 0.00
0.00 0.00 0.00 0.00 0.00 0.00 0.00 0.00 0.00 0.00 0.00 0.00 0.00 0.00 0.00 0.00 0.00 0.00 0.00 0.00 0.00 0.00 0.00 0.00 0.00 0.00 0.00 0.00 0.00 0.00 0.00 0.00 0.00 0.00 0.00 0.00 0.00 0.00 0.00 0.00 0.00 0.00 0.00 0.00
0.00 0.00 0.00 0.00 0.00 0.00 0.00 0.00 0.00 0.00 0.00 0.00 0.00 0.00 0.00 0.00 0.00 0.00 0.00 0.00 0.00 0.00 0.00 0.00 0.00 0.00 0.00 0.00 0.00 0.00 0.00 0.00 0.00 0.00 0.00 0.00 0.00 0.00 0.00 0.00 0.00 0.00 0.00 0.00
0.00 0.00 0.00 0.00 0.00 0.00 0.00 0.00 0.00 0.00 0.00 0.00 0.00 0.00 0.00 0.00 0.00 0.00 0.00 0.00 0.00 0.00 0.00 0.00 0.00 0.00 0.00 0.00 0.00 0.00 0.00 0.00 0.00 0.00 0.00 0.00 0.00 0.00 0.00 0.00 0.00 0.00 0.00 0.00
MSLP
1020.37 1020.80 1021.18 1021.57 1022.06 1022.10 1022.26 1022.24 1021.42 1020.91 1020.78 1021.42 1020.98 1021.06 1021.38 1022.06 1022.46 1022.75 1022.87 1023.18 1022.95 1022.39 1021.90 1021.30 1020.51 1019.41 1018.05 1016.93 1015.93 1014.93 1013.76 1013.05 1012.59 1012.02 1011.57 1011.13 1010.90 1010.97 1010.97 1010.84 1010.19 1009.78 1009.81 1010.04
1020.99 1020.78 1020.82 1021.26 1021.70 1021.81 1021.95 1021.79 1021.36 1020.76 1020.73 1021.15 1020.76 1020.61 1021.19 1021.87 1022.46 1023.00 1023.35 1023.58 1023.31 1022.60 1021.89 1021.36 1020.72 1019.83 1018.51 1017.47 1016.59 1015.33 1014.40 1013.60 1013.07 1012.70 1012.39 1011.86 1011.36 1010.69 1010.20 1009.93 1009.61 1009.45 1009.48 1009.50
1020.88 1020.60 1020.84 1021.19 1021.51 1021.80 1021.74 1021.66 1021.39 1021.33 1020.80 1020.75 1021.27 1020.86 1021.21 1021.73 1022.22 1022.69 1023.34 1023.81 1023.63 1023.15 1022.30 1021.58 1020.89 1020.10 1018.95 1017.82 1016.94 1015.85 1014.83 1014.17 1013.59 1013.06 1012.44 1011.89 1011.28 1010.82 1010.26 1009.96 1009.70 1009.74 1009.95 1009.38
1020.88 1020.66 1021.04 1021.27 1021.67 1022.26 1022.12 1021.30 1021.81 1021.45 1022.00 1022.04 1022.11 1022.10 1021.35 1021.89 1022.49 1022.91 1023.58 1023.75 1023.66 1023.20 1022.62 1022.01 1021.19 1020.11 1019.10 1018.26 1017.41 1016.40 1015.33 1014.72 1014.03 1013.53 1012.86 1012.19 1011.76 1011.26 1010.56 1010.19 1010.03 1010.28 1010.14 1009.76
1020.76 1020.99 1021.43 1021.73 1021.88 1022.43 1022.14 1021.80 1022.02 1022.06 1022.54 1022.94 1022.58 1023.37 1021.62 1022.37 1023.09 1023.68 1023.97 1024.09 1023.88 1023.40 1022.81 1022.05 1021.33 1020.46 1019.57 1018.69 1017.80 1016.92 1015.92 1015.20 1014.68 1014.05 1013.44 1012.70 1011.94 1011.27 1010.50 1010.77 1010.46 1010.71 1010.57 1010.16
1021.38 1021.45 1021.84 1022.00 1022.20 1022.45 1022.84 1022.47 1022.34 1022.79 1023.33 1023.61 1022.96 1023.38 1022.32 1023.30 1024.34 1024.63 1024.90 1024.82 1024.32 1023.51 1022.87 1022.25 1021.57 1020.62 1019.68 1018.88 1018.09 1017.07 1016.24 1015.64 1015.21 1014.64 1014.00 1013.39 1012.88 1012.16 1011.58 1011.46 1011.19 1011.43 1011.15 1010.91
1022.19 1022.09 1022.41 1022.72 1022.99 1023.09 1023.89 1023.72 1023.85 1024.06 1024.62 1023.86 1023.07 1023.40 1022.22 1023.62 1024.69 1025.56 1025.72 1025.29 1024.67 1023.88 1023.01 1022.22 1021.40 1020.52 1019.73 1019.06 1018.37 1017.66 1017.02 1016.26 1015.73 1015.21 1014.72 1014.18 1013.57 1013.12 1012.90 1012.53 1012.58 1012.51 1012.47 1012.39
1024.23 1023.26 1023.10 1023.65 1024.26 1024.68 1025.19 1025.54 1026.42 1027.25 1026.70 1024.89 1023.27 1022.88 1022.34 1023.60 1024.64 1025.74 1026.04 1025.59 1024.74 1024.00 1023.34 1022.55 1021.81 1021.11 1020.44 1019.67 1018.88 1018.22 1017.53 1016.94 1016.41 1015.91 1015.50 1015.08 1014.45 1014.00 1013.80 1013.69 1013.70 1013.66 1013.64 1013.45
1025.35 1024.35 1023.74 1023.99 1024.47 1025.22 1025.44 1026.28 1026.67 1027.47 1027.37 1026.56 1023.14 1022.09 1022.70 1023.83 1025.05 1025.74 1025.92 1025.31 1024.87 1024.27 1023.52 1022.80 1022.09 1021.46 1020.86 1020.33 1019.63 1018.92 1018.19 1017.65 1017.14 1016.74 1016.32 1015.91 1015.43 1015.11 1014.82 1014.62 1014.62 1014.67 1014.62 1014.52
1025.14 1024.94 1024.26 1024.57 1024.90 1025.41 1025.79 1026.63 1027.31 1027.84 1027.92 1026.99 1023.76 1022.94 1023.05 1024.25 1025.56 1025.82 1025.96 1025.71 1025.31 1024.80 1024.11 1023.36 1022.67 1022.08 1021.42 1020.96 1020.35 1019.74 1019.10 1018.52 1018.02 1017.57 1017.22 1016.96 1016.55 1016.02 1015.71 1015.62 1015.68 1015.81 1015.86 1015.54
1025.18 1025.64 1025.12 1025.08 1026.10 1026.35 1026.72 1027.12 1027.74 1028.08 1028.33 1028.29 1026.81 1023.17 1023.40 1024.65 1025.81 1026.21 1026.25 1026.16 1025.98 1025.40 1024.85 1024.13 1023.41 1022.75 1022.13 1021.48 1020.81 1020.23 1019.75 1019.29 1018.79 1018.39 1018.16 1017.80 1017.40 1016.99 1016.77 1016.73 1016.81 1017.23 1016.98 1016.36
1024.67 1025.57 1025.91 1025.95 1026.72 1026.82 1027.28 1027.78 1028.38 1028.53 1028.66 1028.54 1028.23 1024.84 1023.69 1025.05 1026.03 1026.52 1026.66 1026.26 1026.06 1025.84 1025.59 1025.03 1024.19 1023.31 1022.72 1022.11 1021.49 1020.99 1020.60 1020.11 1019.60 1019.25 1018.93 1018.67 1018.40 1018.04 1017.70 1017.82 1018.34 1018.56 1017.66 1017.70
1024.34 1025.38 1026.45 1026.55 1027.49 1027.23 1027.85 1028.07 1028.49 1028.68 1028.87 1028.95 1028.77 1025.14 1024.55 1025.69 1026.59 1026.96 1027.06 1026.79 1026.52 1026.31 1026.27 1025.79 1024.91 1024.14 1023.55 1022.81 1022.28 1021.77 1021.38 1020.94 1020.51 1020.10 1019.82 1019.53 1019.48 1019.18 1019.24 1018.86 1019.76 1019.46 1019.48 1019.65
1024.08 1025.50 1026.49 1027.32 1027.48 1028.04 1028.48 1028.19 1028.51 1029.03 1029.47 1028.91 1028.39 1026.20 1024.94 1026.07 1027.06 1027.75 1027.72 1027.45 1027.19 1027.15 1027.04 1026.46 1025.71 1025.01 1024.27 1023.63 1023.02 1022.57 1022.18 1021.85 1021.51 1021.03 1020.71 1020.44 1020.47 1020.50 1020.52 1020.73 1020.61 1020.79 1021.23 1020.81
1024.60 1025.88 1026.82 1027.02 1027.95 1028.41 1028.20 1028.04 1028.38 1028.98 1028.55 1028.70 1028.02 1028.14 1026.61 1027.12 1027.96 1028.65 1028.66 1028.25 1027.89 1027.75 1027.60 1027.08 1026.36 1025.69 1024.79 1024.09 1023.67 1023.24 1022.97 1022.69 1022.43 1022.02 1021.79 1021.80 1021.79 1021.59 1021.61 1021.53 1021.73 1022.31 1022.06 1021.82
1025.09 1026.14 1027.17 1027.26 1028.06 1028.31 1028.01 1027.35 1027.82 1028.47 1028.54 1028.32 1028.03 1027.74 1027.37 1027.41 1028.23 1029.30 1029.59 1029.14 1028.68 1028.33 1028.17 1027.48 1026.89 1026.16 1025.41 1024.75 1024.50 1024.02 1023.79 1023.70 1023.43 1023.12 1022.97 1023.01 1022.83 1022.88 1022.75 1022.87 1022.82 1023.44 1023.68 1023.80
1025.30 1026.39 1027.39 1027.33 1027.16 1027.22 1026.81 1025.07 1026.05 1026.76 1027.05 1026.76 1027.12 1027.02 1028.03 1028.34 1028.51 1029.20 1029.80 1029.56 1029.41 1029.04 1028.50 1027.88 1027.45 1026.80 1026.07 1025.45 1025.00 1024.77 1024.58 1024.65 1024.40 1024.20 1024.20 1023.97 1024.03 1024.05 1024.18 1024.25 1024.65 1024.79 1025.20 1025.58
1025.24 1026.17 1026.99 1027.01 1026.37 1025.52 1023.36 1023.57 1024.22 1024.82 1024.58 1025.38 1026.06 1026.51 1027.44 1028.60 1028.68 1028.76 1029.49 1029.78 1029.80 1029.40 1028.98 1028.13 1027.75 1027.23 1026.62 1026.24 1025.79 1025.55 1025.46 1025.31 1025.17 1025.13 1024.98 1025.02 1024.95 1024.91 1025.03 1025.47 1025.84 1025.92 1026.08 1026.37
1024.66 1025.36 1026.40 1026.79 1026.28 1023.20 1022.17 1022.81 1023.04 1023.21 1022.33 1022.66 1024.53 1026.11 1026.91 1028.09 1028.45 1028.26 1027.97 1028.70 1029.10 1029.07 1028.73 1028.39 1027.99 1027.51 1027.09 1026.62 1026.34 1026.19 1026.05 1025.89 1026.04 1026.00 1025.84 1026.04 1026.01 1025.82 1025.89 1025.97 1026.70 1027.07 1027.07 1027.10
1024.44 1025.03 1026.06 1026.03 1025.39 1022.68 1020.54 1020.23 1020.69 1021.49 1021.45 1020.90 1022.50 1024.48 1025.70 1026.95 1027.74 1027.84 1027.43 1028.21 1028.47 1028.54 1028.50 1028.31 1027.92 1027.48 1027.17 1027.11 1026.95 1026.92 1026.95 1026.95 1026.84 1026.78 1026.82 1026.82 1026.72 1026.56 1026.86 1027.57 1027.75 1027.66 1027.66 1027.73
1024.20 1024.66 1025.13 1025.08 1024.08 1021.15 1018.96 1019.62 1020.49 1020.93 1020.18 1019.56 1021.01 1022.57 1023.82 1025.38 1025.76 1026.01 1026.77 1027.99 1028.00 1028.20 1028.29 1028.12 1027.98 1027.83 1027.45 1027.36 1027.31 1027.35 1027.33 1027.45 1027.45 1027.40 1027.41 1027.44 1027.39 1027.42 1027.83 1028.11 1028.15 1028.32 1028.45 1028.63
1022.04 1022.89 1023.43 1023.64 1022.56 1019.84 1018.30 1019.83 1019.53 1017.68 1018.28 1018.65 1019.85 1020.81 1022.12 1023.27 1025.04 1025.58 1026.28 1027.20 1027.64 1027.94 1028.18 1028.08 1028.24 1028.04 1027.75 1027.43 1027.39 1027.49 1027.69 1027.86 1027.86 1027.93 1028.06 1028.20 1028.34 1028.40 1028.57 1028.72 1028.89 1028.96 1029.27 1029.45
1020.39 1019.01 1019.35 1019.60 1017.46 1015.86 1016.42 1015.98 1016.14 1016.93 1017.38 1018.21 1018.45 1019.12 1020.18 1022.04 1023.55 1024.49 1025.27 1026.02 1026.49 1026.71 1026.95 1027.22 1027.43 1027.47 1027.42 1027.36 1027.35 1027.60 1027.93 1028.07 1028.26 1028.50 1028.76 1028.68 1028.64 1028.79 1028.96 1028.91 1029.06 1029.40 1029.71 1029.83
1018.14 1017.78 1017.77 1017.44 1014.78 1014.99 1015.06 1015.25 1016.16 1016.36 1016.52 1016.77 1017.08 1017.98 1019.08 1020.33 1022.07 1023.24 1024.06 1024.69 1024.97 1025.35 1025.76 1026.23 1026.88 1027.16 1027.23 1027.25 1027.36 1027.55 1028.04 1028.20 1028.33 1028.58 1028.86 1028.94 1029.01 1028.97 1028.78 1028.86 1029.20 1029.57 1029.82 1029.92
1016.77 1016.85 1016.06 1015.29 1013.72 1014.05 1013.69 1013.60 1013.89 1015.41 1015.94 1016.41 1016.94 1017.38 1018.14 1019.31 1020.80 1021.49 1022.54 1023.28 1023.88 1024.45 1025.16 1025.84 1026.31 1026.68 1026.94 1027.14 1027.46 1027.58 1027.78 1028.08 1028.62 1028.82 1028.97 1029.00 1029.06 1029.21 1029.40 1029.58 1029.75 1029.78 1029.84 1029.87
1014.94 1013.64 1013.83 1012.30 1011.52 1012.07 1011.70 1011.59 1012.46 1013.90 1014.83 1015.42 1016.07 1017.09 1017.68 1018.12 1019.04 1020.24 1021.07 1021.67 1022.47 1023.36 1024.24 1025.12 1025.80 1026.28 1026.47 1026.86 1027.32 1027.59 1027.68 1027.93 1028.25 1028.58 1028.96 1029.29 1029.47 1029.74 1029.94 1030.12 1029.99 1029.49 1029.28 1029.45
Thickness
5519 5516 5504 5498 5482 5477 5465 5453 5444 5441 5426 5395 5389 5368 5357 5338 5329 5321 5315 5305 5298 5295 5295 5299 5306 5319 5338 5354 5371 5392 5418 5441 5458 5473 5487 5500 5512 5520 5530 5541 5554 5564 5572 5578
5510 5517 5508 5492 5480 5475 5467 5455 5443 5437 5420 5399 5382 5370 5340 5336 5325 5315 5305 5297 5291 5290 5292 5294 5299 5309 5327 5342 5357 5380 5401 5424 5442 5455 5469 5484 5498 5514 5527 5538 5549 5558 5565 5575
5512 5517 5498 5490 5479 5473 5465 5451 5446 5431 5419 5393 5374 5356 5333 5336 5329 5322 5309 5295 5288 5286 5289 5293 5298 5305 5319 5335 5349 5368 5389 5408 5427 5443 5458 5474 5490 5506 5521 5532 5542 5549 5555 5567
5506 5502 5493 5483 5478 5458 5423 5457 5438 5421 5379 5378 5352 5353 5347 5337 5327 5317 5302 5291 5287 5285 5287 5290 5296 5305 5315 5327 5341 5359 5378 5396 5415 5431 5448 5464 5478 5493 5509 5523 5532 5537 5545 5555
5526 5499 5483 5458 5476 5456 5441 5446 5428 5416 5375 5355 5370 5333 5345 5325 5324 5307 5296 5289 5283 5284 5285 5288 5294 5302 5311 5321 5334 5352 5370 5388 5404 5421 5436 5453 5471 5486 5501 5509 5521 5526 5534 5545
5495 5486 5474 5469 5463 5455 5444 5426 5433 5396 5382 5339 5353 5350 5358 5317 5294 5293 5285 5281 5280 5285 5287 5289 5294 5302 5311 5320 5332 5349 5366 5382 5396 5411 5426 5441 5454 5469 5483 5494 5506 5512 5522 5530
5485 5487 5471 5458 5448 5448 5419 5401 5386 5403 5371 5365 5369 5356 5357 5301 5294 5281 5274 5273 5277 5284 5288 5292 5298 5305 5313 5321 5331 5345 5359 5376 5389 5402 5415 5428 5442 5454 5465 5476 5484 5493 5503 5512
5445 5477 5457 5444 5426 5408 5417 5378 5373 5378 5353 5362 5380 5360 5368 5305 5287 5271 5268 5267 5286 5286 5289 5293 5298 5304 5310 5319 5330 5341 5355 5368 5381 5393 5405 5416 5429 5440 5449 5459 5468 5476 5486 5498
5424 5451 5453 5440 5432 5418 5416 5391 5391 5340 5330 5338 5378 5385 5336 5320 5303 5285 5271 5287 5285 5286 5291 5295 5300 5305 5311 5317 5327 5338 5351 5362 5373 5384 5395 5406 5417 5427 5436 5446 5454 5462 5472 5484
5435 5439 5458 5439 5428 5424 5415 5403 5375 5352 5343 5340 5377 5384 5385 5327 5302 5294 5275 5283 5283 5286 5290 5296 5301 5305 5311 5317 5326 5334 5344 5355 5365 5375 5385 5394 5405 5417 5426 5434 5442 5449 5458 5471
5429 5428 5449 5434 5389 5393 5398 5386 5385 5370 5356 5337 5343 5381 5344 5325 5297 5285 5279 5283 5278 5285 5288 5294 5301 5306 5311 5319 5327 5335 5342 5351 5361 5370 5378 5388 5397 5408 5416 5423 5430 5436 5446 5459
5445 5408 5404 5420 5383 5396 5392 5361 5356 5364 5363 5352 5347 5366 5337 5325 5301 5289 5288 5287 5286 5287 5287 5291 5298 5306 5312 5320 5327 5335 5342 5350 5359 5367 5375 5382 5390 5398 5407 5413 5415 5422 5436 5443
5443 5438 5422 5444 5415 5408 5380 5380 5373 5356 5349 5323 5342 5402 5337 5320 5310 5298 5287 5285 5286 5289 5287 5288 5295 5304 5310 5321 5328 5336 5342 5348 5353 5361 5368 5375 5380 5388 5394 5403 5402 5414 5420 5426
5453 5418 5431 5444 5437 5365 5379 5374 5380 5372 5320 5340 5344 5377 5387 5349 5315 5301 5292 5286 5286 5283 5280 5287 5294 5302 5312 5321 5328 5334 5338 5344 5352 5361 5369 5376 5379 5382 5387 5392 5399 5403 5407 5417
5441 5417 5387 5389 5350 5352 5364 5380 5373 5368 5350 5379 5365 5332 5378 5346 5315 5298 5294 5289 5286 5284 5285 5292 5298 5306 5317 5328 5332 5337 5341 5347 5353 5361 5367 5369 5370 5376 5382 5388 5393 5393 5402 5409
5429 5420 5403 5411 5352 5353 5391 5391 5376 5367 5335 5342 5312 5353 5340 5325 5304 5306 5298 5296 5292 5289 5293 5304 5311 5316 5324 5330 5335 5340 5344 5347 5352 5356 5362 5363 5366 5370 5377 5381 5387 5388 5390 5394
5425 5415 5392 5422 5385 5396 5415 5390 5370 5357 5339 5380 5391 5398 5315 5348 5346 5320 5311 5302 5301 5305 5305 5309 5315 5323 5330 5333 5339 5343 5345 5347 5352 5355 5357 5360 5359 5365 5369 5372 5375 5378 5380 5380
5422 5399 5395 5403 5386 5445 5449 5348 5373 5402 5390 5369 5366 5354 5349 5342 5332 5324 5317 5315 5313 5313 5319 5326 5329 5335 5338 5341 5343 5345 5348 5351 5354 5355 5358 5358 5361 5365 5368 5369 5369 5370 5373 5375
5424 5412 5388 5398 5407 5456 5460 5399 5411 5435 5461 5401 5397 5356 5343 5334 5340 5360 5331 5327 5333 5330 5330 5332 5336 5338 5343 5346 5349 5351 5352 5353 5352 5355 5359 5360 5363 5367 5369 5370 5368 5368 5371 5371
5439 5417 5398 5417 5420 5457 5466 5422 5414 5413 5456 5416 5412 5389 5376 5389 5382 5377 5351 5342 5344 5341 5343 5345 5348 5351 5354 5353 5355 5356 5356 5355 5355 5357 5359 5361 5363 5365 5366 5364 5364 5366 5368 5368
5439 5435 5408 5411 5408 5445 5451 5439 5438 5462 5491 5426 5426 5410 5412 5409 5404 5379 5372 5358 5356 5358 5358 5358 5357 5358 5359 5360 5361 5360 5360 5360 5361 5364 5365 5366 5368 5368 5367 5363 5364 5364 5364 5363
5436 5426 5410 5412 5422 5477 5451 5450 5474 5482 5431 5435 5430 5428 5427 5400 5376 5377 5379 5377 5373 5370 5367 5368 5366 5367 5368 5370 5371 5370 5368 5367 5368 5368 5367 5366 5365 5365 5362 5360 5359 5359 5357 5355
5456 5472 5456 5457 5479 5479 5475 5484 5469 5450 5460 5441 5455 5443 5446 5419 5407 5402 5399 5393 5391 5388 5384 5381 5379 5378 5377 5376 5376 5374 5372 5371 5369 5367 5363 5363 5361 5359 5357 5358 5357 5355 5351 5349
5462 5464 5464 5471 5495 5492 5485 5485 5463 5465 5474 5473 5475 5465 5456 5445 5426 5418 5412 5407 5406 5403 5397 5393 5387 5383 5382 5381 5381 5379 5373 5370 5367 5364 5361 5359 5358 5358 5358 5358 5354 5350 5347 5345
5477 5467 5479 5476 5500 5482 5497 5497 5509 5480 5471 5478 5473 5470 5466 5453 5438 5435 5428 5422 5417 5412 5405 5398 5394 5390 5387 5383 5380 5377 5374 5369 5365 5362 5360 5358 5356 5354 5352 5350 5347 5344 5342 5340
5474 5496 5502 5517 5521 5519 5530 5522 5511 5499 5491 5486 5482 5470 5468 5465 5457 5447 5441 5437 5429 5420 5412 5403 5397 5392 5389 5383 5379 5375 5373 5370 5367 5364 5359 5355 5353 5349 5346 5343 5340 5340 5338 5334